Location: Newark
(25.4800°N, 85.7200°E)
Time: 20:13:59
(UTC+00:00)

Vanguard 1 Rocket - Pass Details

Date: 21 August 2019
Orbit: 651 x 4225 km, 34.3° (Epoch: 20 September)

Event Time Altitude Azimuth Distance (km) Brightness Sun altitude
Rises 04:17:28 0° 282° (WNW) 5,055 10.9 58.1°
Reaches altitude 10° 04:20:33 10° 274° (W) 4,457 10.7 58.8°
Maximum altitude 04:32:20 37° 212° (SSW) 3,993 11.1 61.3°
Drops below altitude 10° 04:51:50 10° 154° (SSE) 7,169 12.4 65.3°
Sets 04:58:53 0° 147° (SSE) 8,413 12.6 66.6°
